Voltar ao catálogo

OPS 4682 DEB

AtivoPO
NORAD 18784·DEBRIS·🇺🇸 United States

Lançado Apr 3, 1965 de Vandenberg Space Force Base

Loading…

Próximas Passagens (próximas 24 horas)

TLE

AtualizadoSource: Space-Track

Época: Sep 14, 2026, 06:14 UTC

1 18784U 65027AL  26257.26038419 -.00000258  00000-0 -91542-3 0  9994
2 18784  90.2596   6.4617 0039426 238.4104 149.3566 12.97120560813932

Acompanhe OPS 4682 DEB em tempo real com AllMySat

Download on the App Store